リニア彗星

C/2015 TQ209 ( LINEAR )

English version
Home page
Updated on February 27, 2017

---------------------------------------------------------------------

・ プロフィール

発見日 2015年10月10日
発見光度 19.2等
発見者 LINEAR survey (Space Surveillance Telescope, Atom Peak, White Sands Missile Range, NM, USA)

・ 写真集

・ 軌道要素

Epoch 2016 Sept. 9.0 TT = JDT 2457640.5
T 2016 Aug. 27.58818 TT                                 MPCW
q   1.4129691            (2000.0)            P               Q
z  +0.0006937      Peri.  281.51178     -0.81162616     -0.56778085
 +/-0.0000115      Node   224.08282     +0.58269096     -0.77006812
e   0.9990198      Incl.   11.39357     +0.04164406     -0.29089517
From 256 observations 2015 Oct. 10-2016 Mar. 5, mean residual 0".4.

・ 星図

・ 光度変化

        m1 = 10.0 + 5 logΔ + 10.0 log r

---------------------------------------------------------------------

軌道要素はM.P.E.C. 2016-H35に掲載されたものです。
星図はステラナビゲータ Ver.8 (アストロアーツ) で作成したものです。
光度グラフはComet for Windowsで作成したものです。

---------------------------------------------------------------------

Copyright(C) Seiichi Yoshida (comet@aerith.net). All rights reserved.